Tracking 30116 objects as of 10-Feb-2025
HD Live streaming from Space Station
objects crossing your sky now

CENTISPACE-1 S12

Track CENTISPACE-1 S12 now!
10-day predictions


NORAD ID: 62581
Int'l Code: 2025-007G
Perigee: 640.3 km
Apogee: 662.5 km
Inclination: 55.0 °
Period: 97.6 minutes
Semi major axis: 7022 km
RCS: Unknown
Launch date: January 13, 2025
Source: People's Republic of China (PRC)
Launch site: Yellow Sea Launch Area, China (YSLA)
Your satellite tracking list
Your tracking list is empty




NASA's NSSDC Master Catalog

Two Line Element Set (TLE):
1 62581U 25007G   25041.54795978  .00003503  00000-0  54315-3 0  9994
2 62581  54.9786  12.0869 0015770  14.2587 345.8854 14.75274083  4200
Source of the keplerian elements: AFSPC